Location: Bonny Doon Airfield
(37.0704°N, 122.1252°W)
Time: 07:53:52
(UTC-08:00)

BREEZE M DEB (TANK) - Visible Passes

Search period start: 28 February 2015 00:00
Search period end: 10 March 2015 01:00
Orbit: 338 x 13797 km, 49.6° (Epoch: 27 February)

Date Brightness Start Highest point End Pass type
(mag) Time Alt. Az. Time Alt. Az. Time Alt. Az.
28 Feb 10.1 02:35:12 10° SE 03:28:49 26° ESE 04:37:10 10° ENE visible
01 Mar 9.5 04:06:23 10° S 05:47:24 57° SE 06:42:04 10° NE visible
02 Mar 10.1 02:08:27 10° SE 02:46:12 20° ESE 03:56:05 10° ENE visible
02 Mar 8.8 06:03:14 10° SSW 08:05:45 89° SE 08:41:12 10° NE visible
03 Mar 9.7 03:30:19 10° SSE 05:03:58 51° ESE 06:03:57 10° NE visible
04 Mar 10.2 01:45:56 10° ESE 02:03:46 14° ESE 03:12:48 10° ENE visible
04 Mar 9.0 05:23:25 10° SSW 07:23:12 83° SE 08:03:45 10° NE visible
05 Mar 9.7 02:55:10 10° SSE 04:20:26 45° ESE 05:25:23 10° NE visible
06 Mar 9.2 04:44:19 10° SSW 06:39:57 77° SE 07:26:04 10° NE visible
07 Mar 9.7 02:21:07 10° SSE 03:36:59 39° ESE 04:46:18 10° NE visible
08 Mar 9.5 05:05:52 10° S 06:56:08 71° SE 07:48:06 10° NE visible
09 Mar 9.7 02:48:34 10° SE 03:53:43 32° ESE 05:06:32 10° NE visible
09 Mar 8.7 07:08:44 10° SW 09:14:51 80° NNW 09:46:37 10° ENE visible
